Weather History for Salt Point, LA

Change the Weather History Date:

Monday, January 21, 2013

  Actual Average Record
Temperature  
Mean Temperature 67 °F -  
Max Temperature 82 °F 58 °F 82 °F (2013)
Min Temperature 52 °F 43 °F 28 °F (2001)
Cooling Degree Days 2    
Growing Degree Days 17 (Base 50)    
Moisture  
Dew Point 46 °F    
Average Humidity 57    
Maximum Humidity 83    
Minimum Humidity 23    
Precipitation  
Precipitation 0.01 in - - ()
Sea Level Pressure  
Sea Level Pressure 30.18 in    
Wind  
Wind Speed 2 mph (NNE)    
Max Wind Speed 8 mph    
Max Gust Speed -    
Averages and records for this station are not official NWS values.
T = Trace of Precipitation, MM = Missing Value Source: NWS Daily Summary

Daily Weather History Graph

Daily Weather History Graph

Search for Another Location

Airport:

Trip Planner

Search our weather history database for the weather conditions in past years. The results will help you decide how hot, cold, wet, or windy it might be!

Date:

Astronomy

Jan. 21, 2013 Rise Set
Actual Time 7:00 AM CST 5:34 PM CST
Civil Twilight 6:35 AM CST 6:00 PM CST
Nautical Twilight 6:06 AM CST 6:29 PM CST
Astronomical Twilight 5:37 AM CST 6:57 PM CST
Moon 1:16 PM CST (1/21) 2:28 AM CST (1/21)
Length of Visible Light 11h 25m
Length of Day
10h 34m
Waxing Gibbous, 75% of the Moon is Illuminated
Jan 21
Waxing Gibbous
Jan 26
Full
Feb 3
Last Quarter
Feb 10
New
Feb 17
First Quarter

Hourly Weather History & Observations

Time (CST) Temp. Dew Point Humidity Pressure Visibility Wind Dir Wind Speed Gust Speed Precip Events Conditions
12:53 AM 55.9 °F 46.9 °F 72% 30.14 in - Calm Calm - N/A   Unknown
1:53 AM 52.0 °F 46.0 °F 80% 30.15 in - Calm Calm - N/A   Unknown
2:53 AM 52.0 °F 46.9 °F 83% 30.15 in - Calm Calm - N/A   Unknown
3:53 AM 57.0 °F 46.9 °F 69% 30.15 in - North 3.5 mph - N/A   Unknown
4:53 AM 54.0 °F 46.9 °F 77% 30.16 in - Calm Calm - 0.01 in   Unknown
5:53 AM 55.0 °F 46.0 °F 72% 30.15 in - Calm Calm - N/A   Unknown
6:53 AM 55.0 °F 46.0 °F 72% 30.18 in - NNE 3.5 mph - N/A   Unknown
7:53 AM 64.9 °F 46.0 °F 50% 30.20 in - Variable 4.6 mph - N/A   Unknown
8:53 AM 66.9 °F 46.9 °F 49% 30.21 in - Variable 3.5 mph - N/A   Unknown
9:53 AM 68.0 °F 46.9 °F 47% 30.23 in - Variable 4.6 mph - N/A   Unknown
10:53 AM 79.0 °F 45.0 °F 30% 30.22 in - NNE 3.5 mph - N/A   Unknown
11:53 AM 78.1 °F 43.0 °F 29% 30.20 in - ENE 8.1 mph - N/A   Unknown
12:53 PM 77.0 °F 42.1 °F 29% 30.17 in - Variable 3.5 mph - N/A   Unknown
1:53 PM 82.0 °F 41.0 °F 23% 30.15 in - Variable 3.5 mph - N/A   Unknown
2:53 PM 79.0 °F 48.9 °F 35% 30.15 in - Calm Calm - N/A   Unknown
3:53 PM 80.1 °F 42.1 °F 26% 30.16 in - Variable 3.5 mph - N/A   Unknown
4:53 PM 66.0 °F 48.9 °F 54% 30.17 in - SSW 3.5 mph - N/A   Unknown
5:53 PM 60.1 °F 48.9 °F 67% 30.18 in - Calm Calm - N/A   Unknown
6:53 PM 59.0 °F 48.0 °F 67% 30.19 in - Calm Calm - N/A   Unknown
7:53 PM 59.0 °F 48.0 °F 67% 30.19 in - Calm Calm - N/A   Unknown
8:53 PM 57.0 °F 48.0 °F 72% 30.20 in - Calm Calm - N/A   Unknown
9:53 PM 57.0 °F 46.0 °F 67% 30.21 in - Calm Calm - N/A   Unknown
10:53 PM 57.0 °F 46.0 °F 67% 30.20 in - Calm Calm - N/A   Unknown
11:53 PM 55.0 °F 44.1 °F 67% 30.21 in - Calm Calm - N/A   Unknown